When you browse on this site, cookies collect data to enhance your experience and personalize the content and advertising you see.
Visit our Privacy Policy to learn more. By continuing to use the site, you agree to this use of cookies and data.
  • In Österreich
  • Länderverzeichnis
  • Für 7 Tage
  • Wassertemperatur
  • Satellitenkarten
  • Wetterkarte
  • News
  • Widgets
  • user-avatar
    Anmelden

    Stündliche Wetter Rivne

    Heute, 21 Februar, Donnerstag

    Zeit Temperatur Niederschläge Wind Luftdruck Luftfeuchtigkeit
    00:00 +3°C° 0 mm 3 m/S 756 mmHg 89%
    01:00 +3°C° 0 mm 3 m/S 756 mmHg 92%
    02:00 +3°C° 0 mm 3 m/S 756 mmHg 94%
    03:00 +3°C° 0 mm 3 m/S 756 mmHg 93%
    04:00 +2°C° 0 mm 3 m/S 756 mmHg 91%
    05:00 +1°C° 0 mm 4 m/S 756 mmHg 90%
    06:00 +1°C° 0 mm 4 m/S 756 mmHg 87%
    07:00 +1°C° 0 mm 5 m/S 756 mmHg 83%
    08:00 +2°C° 0 mm 6 m/S 756 mmHg 78%
    09:00 +3°C° 0 mm 7 m/S 756 mmHg 69%
    10:00 +4°C° 0 mm 7 m/S 756 mmHg 61%
    11:00 +6°C° 0 mm 8 m/S 756 mmHg 52%
    12:00 +6°C° 0 mm 8 m/S 756 mmHg 52%
    13:00 +6°C° 0 mm 8 m/S 756 mmHg 52%
    14:00 +6°C° 0 mm 8 m/S 755 mmHg 49%
    15:00 +5°C° 0 mm 8 m/S 755 mmHg 49%
    16:00 +5°C° 0 mm 7 m/S 755 mmHg 49%
    17:00 +4°C° 0 mm 7 m/S 756 mmHg 49%
    18:00 +3°C° 0 mm 6 m/S 756 mmHg 52%
    19:00 +2°C° 0 mm 5 m/S 756 mmHg 55%
    20:00 +1°C° 0 mm 5 m/S 757 mmHg 58%
    21:00 0°C° 0 mm 4 m/S 757 mmHg 60%
    22:00 +1°C° 0 mm 3 m/S 757 mmHg 63%
    23:00 +1°C° 0 mm 2 m/S 757 mmHg 66%

    Morgen, 22 Februar, Freitag

    Zeit Temperatur Niederschläge Wind Luftdruck Luftfeuchtigkeit
    00:00 +1°C° 0 mm 2 m/S 758 mmHg 68%
    01:00 -1°C° 0 mm 2 m/S 758 mmHg 71%
    02:00 -1°C° 0 mm 2 m/S 758 mmHg 73%
    03:00 -1°C° 0 mm 2 m/S 758 mmHg 74%
    04:00 -2°C° 0 mm 2 m/S 758 mmHg 75%
    05:00 -2°C° 0 mm 2 m/S 758 mmHg 76%
    06:00 -2°C° 0 mm 2 m/S 758 mmHg 70%
    07:00 -2°C° 0 mm 3 m/S 758 mmHg 64%
    08:00 -2°C° 0 mm 3 m/S 758 mmHg 58%
    09:00 -2°C° 0.1 mm 3 m/S 758 mmHg 57%
    10:00 -2°C° 0.1 mm 3 m/S 758 mmHg 55%
    11:00 -2°C° 0.1 mm 3 m/S 758 mmHg 54%
    12:00 -2°C° 0.2 mm 3 m/S 758 mmHg 60%
    13:00 -4°C° 0.2 mm 4 m/S 758 mmHg 66%
    14:00 -4°C° 0.2 mm 4 m/S 758 mmHg 71%
    15:00 -4°C° 0.5 mm 4 m/S 758 mmHg 76%
    16:00 -6°C° 0.5 mm 5 m/S 758 mmHg 80%
    17:00 -6°C° 0.5 mm 5 m/S 758 mmHg 84%
    18:00 -8°C° 0.5 mm 6 m/S 758 mmHg 84%
    19:00 -8°C° 0.5 mm 6 m/S 759 mmHg 83%
    20:00 -8°C° 0.5 mm 7 m/S 759 mmHg 83%
    21:00 -9°C° 0.3 mm 7 m/S 759 mmHg 82%
    22:00 -9°C° 0.3 mm 7 m/S 760 mmHg 81%
    23:00 -11°C° 0.3 mm 7 m/S 760 mmHg 81%

    übermorgen, 23 Februar, Samstag

    Zeit Temperatur Niederschläge Wind Luftdruck Luftfeuchtigkeit
    00:00 -11°C° 0.1 mm 7 m/S 760 mmHg 79%
    01:00 -10°C° 0.1 mm 6 m/S 760 mmHg 78%
    02:00 -10°C° 0.1 mm 6 m/S 761 mmHg 76%
    03:00 -10°C° 0 mm 6 m/S 761 mmHg 76%
    04:00 -10°C° 0 mm 6 m/S 761 mmHg 75%
    05:00 -10°C° 0 mm 6 m/S 762 mmHg 74%
    06:00 -9°C° 0 mm 6 m/S 762 mmHg 73%
    07:00 -9°C° 0 mm 6 m/S 763 mmHg 73%
    08:00 -9°C° 0 mm 7 m/S 763 mmHg 72%
    09:00 -8°C° 0 mm 7 m/S 764 mmHg 70%
    10:00 -8°C° 0 mm 7 m/S 764 mmHg 69%
    11:00 -7°C° 0 mm 7 m/S 764 mmHg 67%
    12:00 -5°C° 0 mm 6 m/S 764 mmHg 65%
    13:00 -5°C° 0 mm 6 m/S 765 mmHg 63%
    14:00 -4°C° 0 mm 6 m/S 765 mmHg 61%
    15:00 -4°C° 0 mm 5 m/S 765 mmHg 62%
    16:00 -5°C° 0 mm 5 m/S 765 mmHg 63%
    17:00 -5°C° 0 mm 5 m/S 766 mmHg 65%
    18:00 -6°C° 0 mm 5 m/S 766 mmHg 67%
    19:00 -6°C° 0 mm 5 m/S 767 mmHg 69%
    20:00 -8°C° 0 mm 6 m/S 767 mmHg 71%
    21:00 -7°C° 0 mm 5 m/S 767 mmHg 72%
    22:00 -7°C° 0 mm 5 m/S 768 mmHg 74%
    23:00 -7°C° 0 mm 5 m/S 768 mmHg 76%

    24 Februar, Sonntag

    Zeit Temperatur Niederschläge Wind Luftdruck Luftfeuchtigkeit
    00:00 -8°C° 0 mm 5 m/S 768 mmHg 76%
    01:00 -8°C° 0 mm 5 m/S 768 mmHg 76%
    02:00 -8°C° 0 mm 5 m/S 768 mmHg 76%
    03:00 -8°C° 0 mm 5 m/S 768 mmHg 77%
    04:00 -8°C° 0 mm 5 m/S 768 mmHg 77%
    05:00 -9°C° 0 mm 4 m/S 768 mmHg 77%
    06:00 -8°C° 0 mm 5 m/S 769 mmHg 76%
    07:00 -8°C° 0 mm 5 m/S 769 mmHg 75%
    08:00 -8°C° 0 mm 5 m/S 769 mmHg 74%
    09:00 -7°C° 0 mm 5 m/S 769 mmHg 71%
    10:00 -5°C° 0 mm 4 m/S 770 mmHg 67%
    11:00 -4°C° 0 mm 4 m/S 770 mmHg 64%
    12:00 -3°C° 0 mm 4 m/S 770 mmHg 60%
    13:00 -3°C° 0 mm 4 m/S 769 mmHg 56%
    14:00 -1°C° 0 mm 3 m/S 769 mmHg 52%
    15:00 -1°C° 0 mm 3 m/S 769 mmHg 54%
    16:00 -2°C° 0 mm 3 m/S 769 mmHg 57%
    17:00 -4°C° 0 mm 3 m/S 769 mmHg 59%
    18:00 -4°C° 0 mm 3 m/S 770 mmHg 58%
    19:00 -5°C° 0 mm 3 m/S 770 mmHg 57%
    20:00 -4°C° 0 mm 2 m/S 770 mmHg 56%
    21:00 -4°C° 0 mm 2 m/S 770 mmHg 55%
    22:00 -4°C° 0 mm 2 m/S 770 mmHg 54%
    23:00 -4°C° 0 mm 2 m/S 770 mmHg 53%

    25 Februar, Montag

    Zeit Temperatur Niederschläge Wind Luftdruck Luftfeuchtigkeit
    00:00 -4°C° 0 mm 2 m/S 770 mmHg 55%
    01:00 -4°C° 0 mm 2 m/S 770 mmHg 58%
    02:00 -4°C° 0 mm 2 m/S 770 mmHg 60%
    03:00 -5°C° 0 mm 3 m/S 770 mmHg 63%
    04:00 -5°C° 0 mm 3 m/S 769 mmHg 65%
    05:00 -5°C° 0 mm 3 m/S 769 mmHg 68%
    06:00 -5°C° 0 mm 3 m/S 769 mmHg 65%
    07:00 -4°C° 0 mm 3 m/S 769 mmHg 63%
    08:00 -4°C° 0 mm 4 m/S 769 mmHg 61%
    09:00 -2°C° 0 mm 4 m/S 768 mmHg 60%
    10:00 -1°C° 0 mm 4 m/S 768 mmHg 60%
    11:00 0°C° 0 mm 4 m/S 768 mmHg 59%
    12:00 +1°C° 0 mm 4 m/S 767 mmHg 59%
    13:00 +1°C° 0 mm 4 m/S 766 mmHg 59%
    14:00 +3°C° 0 mm 4 m/S 765 mmHg 59%
    15:00 +1°C° 0 mm 4 m/S 765 mmHg 64%
    16:00 +1°C° 0 mm 3 m/S 764 mmHg 70%
    17:00 0°C° 0 mm 3 m/S 764 mmHg 75%
    18:00 0°C° 0 mm 3 m/S 764 mmHg 79%
    19:00 -1°C° 0 mm 3 m/S 763 mmHg 83%
    20:00 -2°C° 0 mm 3 m/S 763 mmHg 87%
    21:00 -3°C° 0 mm 4 m/S 763 mmHg 87%
    22:00 -3°C° 0 mm 4 m/S 762 mmHg 88%
    23:00 -3°C° 0 mm 4 m/S 761 mmHg 88%

    26 Februar, Dienstag

    Zeit Temperatur Niederschläge Wind Luftdruck Luftfeuchtigkeit
    00:00 -2°C° 0 mm 4 m/S 761 mmHg 88%
    01:00 -2°C° 0 mm 4 m/S 761 mmHg 87%
    02:00 -2°C° 0 mm 4 m/S 760 mmHg 87%
    03:00 -2°C° 0 mm 4 m/S 759 mmHg 89%
    04:00 -2°C° 0 mm 4 m/S 759 mmHg 92%
    05:00 -3°C° 0 mm 4 m/S 758 mmHg 94%
    06:00 -2°C° 0 mm 4 m/S 758 mmHg 91%
    07:00 -2°C° 0 mm 5 m/S 757 mmHg 88%
    08:00 -3°C° 0 mm 6 m/S 757 mmHg 85%
    09:00 -2°C° 0 mm 6 m/S 756 mmHg 83%
    10:00 -2°C° 0 mm 6 m/S 756 mmHg 80%
    11:00 -1°C° 0 mm 7 m/S 755 mmHg 77%
    12:00 -1°C° 0 mm 6 m/S 755 mmHg 77%
    13:00 -1°C° 0 mm 6 m/S 754 mmHg 76%
    14:00 +1°C° 0 mm 6 m/S 754 mmHg 75%
    15:00 0°C° 0 mm 5 m/S 753 mmHg 78%
    16:00 0°C° 0 mm 4 m/S 753 mmHg 81%
    17:00 +1°C° 0 mm 3 m/S 752 mmHg 83%
    18:00 0°C° 0 mm 3 m/S 752 mmHg 84%
    19:00 +1°C° 0 mm 2 m/S 752 mmHg 86%
    20:00 +1°C° 0 mm 2 m/S 751 mmHg 87%
    21:00 +1°C° 0 mm 2 m/S 751 mmHg 88%
    22:00 +1°C° 0 mm 2 m/S 750 mmHg 90%
    23:00 -1°C° 0 mm 2 m/S 750 mmHg 91%
    Mehr zeigen